Miscellaneous Local Product
Issued by NWS North Platte, NE

Home | Current Version | Previous Version | Text Only | Print | Product List | Glossary On
Versions: 1 2 3 4 5 6 7 8 9 10 11 12 13 14 15 16 17 18 19 20 21 22 23 24 25 26 27 28 29 30 31 32 33 34 35 36 37 38 39 40 41 42 43 44 45 46 47 48 49 50
956
AXUS43 KLBF 032110
MISLBF


WESTERN AND NORTH CENTRAL NEBRASKA HOURLY WEATHER ROUNDUP
NATIONAL WEATHER SERVICE NORTH PLATTE NE
400 PM CDT TUE MAY 03 2016

NOTE: "FAIR" INDICATES FEW OR NO CLOUDS BELOW 12,000 FEET WITH NO
SIGNIFICANT WEATHER AND/OR OBSTRUCTIONS TO VISIBILITY.

NOTE: STATIONS NOT REPORTING VARIABLES SUCH AS SKY/WEATHER OR
PRESSURE ARE PROVIDED BY RAWS AND APRS NETWORKS AND ARE NOT UNDER
NATIONAL WEATHER SERVICE QUALITY CONTROL.

...OBSERVATIONS IN AND NEAR THE EASTERN PANHANDLE OF NEBRASKA...

CITY           SKY/WX    TMP DP  RH WIND       PRES   REMARKS
PINE RIDGE     SUNNY     71  34  25 N16G22    30.09S
CHADRON        SUNNY     72  36  26 MISG      30.09F
ALLIANCE       SUNNY     69  29  22 N17G24    30.11S
SIDNEY         SUNNY     69  28  21 N16G23    30.13F
CRESCENT LAKE    N/A     69  29  22 N13G21      N/A
BIG SPRINGS      N/A     66  39  37 N6          N/A
$$

...OBSERVATIONS IN NORTHERN NEBRASKA AND FAR SOUTHERN SOUTH DAKOTA...

CITY           SKY/WX    TMP DP  RH WIND       PRES   REMARKS
WINNER         FAIR      72  42  34 NW18G25   30.00F
VALENTINE      SUNNY     71  33  24 N12G23    30.03F
THEDFORD       SUNNY     69  39  34 N14G20    30.05F
AINSWORTH      SUNNY     67  39  35 N13G21    30.03S
O`NEILL        SUNNY     69  38  32 W18G24    30.00F
ORD            SUNNY     68  43  40 NW12      30.00F
BROKEN BOW     SUNNY     67  40  37 NW9       30.03F
VALENTINE NWR    N/A     68  38  33 NW10G20     N/A
BUTTE            N/A     67  46  46 W13G22      N/A
HALSEY           N/A     69  37  31 NW7G17      N/A
CHAMBERS         N/A     69  43  39 W8          N/A
EWING            N/A     68  45  43 W12G20      N/A
$$

...OBSERVATIONS IN SOUTHWEST NEBRASKA AND FAR NORTHEAST COLORADO...

CITY           SKY/WX    TMP DP  RH WIND       PRES   REMARKS
HOLYOKE        FAIR      68  34  28 N13G21    30.12F
IMPERIAL       SUNNY     66  35  31 N8        30.09F
OGALLALA       SUNNY     67  33  28 NW8G18    30.09F
NORTH PLATTE   SUNNY     68  41  37 W10G17    30.05F
MCCOOK         SUNNY     67  43  41 N12       30.07F
LEXINGTON      PTSUNNY   67  43  42 NW8       30.05F
PAXTON           N/A     65  45  48 NW6         N/A
STAPLETON        N/A     68  43  39 CALM        N/A
GOTHENBURG       N/A     65  35  33 NW8         N/A
CALLAWAY         N/A     64  44  48 NW13        N/A
$$

...OBSERVATIONS IN CENTRAL LINCOLN COUNTY AREA...

CITY           SKY/WX    TMP DP  RH WIND       PRES   REMARKS
N.P. AIRPORT   SUNNY     68  41  37 W10G17    30.05F
N.P. DOWNTOWN    N/A     67  40  36 NW6G14      N/A
N.P. SOUTHEAST   N/A     67  38  34 N5G12       N/A
N.P. HILLCREST   N/A     67  38  34 NW12G20     N/A
$$

...SOME OBSERVATIONS FROM AROUND THE REGION...

CITY           SKY/WX    TMP DP  RH WIND       PRES   REMARKS
DENVER         MOSUNNY   65  31  28 N15       30.22S
LARAMIE        SUNNY     54  32  43 NW9       30.29S
CHEYENNE       MOSUNNY   60  32  34 NW16      30.24R
SCOTTSBLUFF    SUNNY     72  33  24 N16G23    30.12S
RAPID CITY     SUNNY     72  39  30 N17G26    30.08S
BISMARCK       SUNNY     75  36  24 N17G30    29.97S
PIERRE         SUNNY     75  39  27 NW22      29.95F
SIOUX FALLS    PTSUNNY   70  41  34 NW18G30   29.88F
OMAHA          PTSUNNY   71  41  33 W15G24    29.95F
GRAND ISLAND   MOSUNNY   69  37  30 W14G21    30.02F
KANSAS CITY    MOSUNNY   67  39  35 VRB3      29.99F
WICHITA        PTSUNNY   69  43  38 SW7       30.01F
OKLAHOMA CITY  PTSUNNY   68  42  38 S5        30.04F
DALLAS         MOSUNNY   73  45  36 NE8       30.04F
AMARILLO       MOSUNNY   68  35  29 W15G22    30.10F
DODGE CITY     PTSUNNY   65  41  41 N13       30.06S
HAYS           PTSUNNY   66  45  45 W10       30.04F
GOODLAND       SUNNY     66  36  32 N14G24    30.10F
$$




USA.gov is the U.S. government's official web portal to all federal, state and local government web resources and services.